STARLINK-34371

Last updated on Fri Aug 08 2025 00:02:05 GMT+0000 (Coordinated Universal Time)

1 64756U 25147B 25218.55986389 -.00178312 00000+0 -41855-2 0 9996 2 64756 53.1594 164.9075 0001440 36.5198 323.5906 15.42148225 5726
UTC large
Height (km)
Speed (km/s)
/
Latitude / Longitude
Inclination (degrees)
Orbital Period (minutes)
Azimuth
Elevation
Range (km)
Doppler Factor

Next 0 passes for location: London (51.5072 / 0.1276)

Sorry there are no passes over London.
STARLINK-34371